Year,Month,Day,Hour,Minute,Value (Times are PST for temperature in C)
2015,12,04,00,00,6.00
2015,12,04,00,01,6.00
2015,12,04,00,02,6.00
2015,12,04,00,03,6.00
2015,12,04,00,04,6.00
2015,12,04,00,05,6.00
2015,12,04,00,06,6.00
2015,12,04,00,07,6.00
2015,12,04,00,08,6.00
2015,12,04,00,09,6.00
2015,12,04,00,10,6.00
2015,12,04,00,11,6.00
2015,12,04,00,12,6.00
2015,12,04,00,13,6.00
2015,12,04,00,14,6.00
2015,12,04,00,15,6.00
2015,12,04,00,16,6.00
2015,12,04,00,17,6.00
2015,12,04,00,18,6.00
2015,12,04,00,19,5.90
2015,12,04,00,20,5.90
2015,12,04,00,21,5.90
2015,12,04,00,22,5.90
2015,12,04,00,23,5.80
2015,12,04,00,24,5.80
2015,12,04,00,25,5.70
2015,12,04,00,26,5.70
2015,12,04,00,27,5.70
2015,12,04,00,28,5.60
2015,12,04,00,29,5.60
2015,12,04,00,30,5.50
2015,12,04,00,31,5.50
2015,12,04,00,32,5.50
2015,12,04,00,33,5.50
2015,12,04,00,34,5.40
2015,12,04,00,35,5.40
2015,12,04,00,36,5.40
2015,12,04,00,37,5.40
2015,12,04,00,38,5.40
2015,12,04,00,39,5.40
2015,12,04,00,40,5.40
2015,12,04,00,41,5.40
2015,12,04,00,42,5.40
2015,12,04,00,43,5.40
2015,12,04,00,44,5.40
2015,12,04,00,45,5.40
2015,12,04,00,46,5.40
2015,12,04,00,47,5.40
2015,12,04,00,48,5.40
2015,12,04,00,49,5.40
2015,12,04,00,50,5.40
2015,12,04,00,51,5.40
2015,12,04,00,52,5.40
2015,12,04,00,53,5.40
2015,12,04,00,54,5.40
2015,12,04,00,55,5.40
2015,12,04,00,56,5.40
2015,12,04,00,57,5.40
2015,12,04,00,58,5.40
2015,12,04,00,59,5.40
2015,12,04,01,00,5.40
2015,12,04,01,01,5.40
2015,12,04,02,08,6.80
2015,12,04,02,09,6.70
2015,12,04,02,10,6.80
2015,12,04,02,11,6.80
2015,12,04,02,12,6.80
2015,12,04,02,13,6.80
2015,12,04,02,14,6.80
2015,12,04,02,15,6.70
2015,12,04,02,16,6.70
2015,12,04,02,17,6.70
2015,12,04,02,18,6.70
2015,12,04,02,19,6.70
2015,12,04,02,20,6.70
2015,12,04,02,21,6.80
2015,12,04,02,22,6.80
2015,12,04,02,23,6.80
2015,12,04,02,24,6.80
2015,12,04,02,25,6.80
2015,12,04,02,26,6.80
2015,12,04,02,27,6.80
2015,12,04,02,28,6.80
2015,12,04,02,29,6.80
2015,12,04,02,30,6.80
2015,12,04,02,31,6.90
2015,12,04,02,32,6.90
2015,12,04,02,33,6.90
2015,12,04,02,34,6.90
2015,12,04,02,35,6.90
2015,12,04,02,36,6.90
2015,12,04,02,37,6.90
2015,12,04,02,38,6.80
2015,12,04,02,39,6.80
2015,12,04,02,40,6.80
2015,12,04,02,41,6.80
2015,12,04,02,42,6.70
2015,12,04,02,43,6.70
2015,12,04,02,44,6.70
2015,12,04,02,45,6.70
2015,12,04,02,46,6.70
2015,12,04,02,47,6.80
2015,12,04,02,48,6.70
2015,12,04,02,49,6.70
2015,12,04,02,50,6.70
2015,12,04,02,51,6.70
2015,12,04,02,52,6.70
2015,12,04,02,53,6.60
2015,12,04,02,54,6.60
2015,12,04,02,55,6.60
2015,12,04,02,56,6.60
2015,12,04,02,57,6.60
2015,12,04,02,58,6.60
2015,12,04,02,59,6.70
2015,12,04,03,00,6.70
2015,12,04,03,01,6.70
2015,12,04,03,02,6.70
2015,12,04,03,03,6.70
2015,12,04,03,04,6.60
2015,12,04,03,05,6.60
2015,12,04,03,06,6.60
2015,12,04,03,07,6.60
2015,12,04,03,08,6.60
2015,12,04,03,09,6.60
2015,12,04,03,10,6.60
2015,12,04,03,11,6.60
2015,12,04,03,12,6.60
2015,12,04,03,13,6.70
2015,12,04,03,14,6.70
2015,12,04,03,15,6.70
2015,12,04,03,16,6.80
2015,12,04,03,17,6.80
2015,12,04,03,18,6.80
2015,12,04,03,19,6.80
2015,12,04,03,20,6.80
2015,12,04,03,21,6.80
2015,12,04,03,22,6.80
2015,12,04,03,23,6.70
2015,12,04,03,24,6.70
2015,12,04,03,25,6.60
2015,12,04,03,26,6.50
2015,12,04,03,27,6.40
2015,12,04,03,28,6.40
2015,12,04,03,29,6.30
2015,12,04,03,30,6.20
2015,12,04,03,31,6.10
2015,12,04,03,32,6.10
2015,12,04,03,33,6.00
2015,12,04,03,34,5.90
2015,12,04,03,35,5.80
2015,12,04,03,36,5.80
2015,12,04,03,37,5.80
2015,12,04,03,38,5.70
2015,12,04,03,39,5.70
2015,12,04,03,40,5.70
2015,12,04,03,41,5.70
2015,12,04,03,42,5.70
2015,12,04,03,43,5.70
2015,12,04,03,44,5.70
2015,12,04,03,45,5.70
2015,12,04,03,46,5.70
2015,12,04,03,47,5.70
2015,12,04,03,48,5.70
2015,12,04,03,49,5.80
2015,12,04,03,50,5.80
2015,12,04,03,51,5.80
2015,12,04,03,52,5.80
2015,12,04,03,53,5.80
2015,12,04,03,54,5.80
2015,12,04,03,55,5.80
2015,12,04,03,56,5.80
2015,12,04,03,57,5.80
2015,12,04,03,58,5.90
2015,12,04,03,59,5.90
2015,12,04,04,00,6.00
2015,12,04,04,01,6.00
2015,12,04,04,02,6.00
2015,12,04,04,03,6.10
2015,12,04,04,04,6.10
2015,12,04,04,05,6.10
2015,12,04,04,06,6.10
2015,12,04,04,07,6.10
2015,12,04,04,08,6.10
2015,12,04,04,09,6.10
2015,12,04,04,10,6.10
2015,12,04,04,11,6.10
2015,12,04,04,12,6.10
2015,12,04,04,13,6.10
2015,12,04,04,14,6.10
2015,12,04,04,15,6.10
2015,12,04,04,16,6.10
2015,12,04,04,17,6.00
2015,12,04,04,18,6.00
2015,12,04,04,19,6.00
2015,12,04,04,20,6.00
2015,12,04,04,21,6.00
2015,12,04,04,22,6.00
2015,12,04,04,23,6.00
2015,12,04,04,24,6.00
2015,12,04,04,25,6.00
2015,12,04,04,26,5.90
2015,12,04,04,27,5.90
2015,12,04,04,28,5.90
2015,12,04,04,29,5.80
2015,12,04,04,30,5.80
2015,12,04,04,31,5.80
2015,12,04,04,32,5.70
2015,12,04,04,33,5.70
2015,12,04,04,34,5.70
2015,12,04,04,35,5.70
2015,12,04,04,36,5.60
2015,12,04,04,37,5.60
2015,12,04,04,38,5.60
2015,12,04,04,39,5.70
2015,12,04,04,40,5.70
2015,12,04,04,41,5.70
2015,12,04,04,42,5.70
2015,12,04,04,43,5.70
2015,12,04,04,44,5.70
2015,12,04,04,45,5.70
2015,12,04,04,46,5.70
2015,12,04,04,47,5.70
2015,12,04,04,48,5.70
2015,12,04,04,49,5.70
2015,12,04,04,50,5.70
2015,12,04,04,51,5.70
2015,12,04,04,52,5.70
2015,12,04,04,53,5.70
2015,12,04,04,54,5.70
2015,12,04,04,55,5.70
2015,12,04,04,56,5.70
2015,12,04,04,57,5.80
2015,12,04,04,58,5.80
2015,12,04,04,59,5.80
2015,12,04,05,00,5.90
2015,12,04,05,01,5.90
2015,12,04,05,02,6.00
2015,12,04,05,03,6.00
2015,12,04,05,04,6.00
2015,12,04,05,05,6.10
2015,12,04,05,06,6.10
2015,12,04,05,07,6.10
2015,12,04,05,08,6.10
2015,12,04,05,09,6.10
2015,12,04,05,10,6.10
2015,12,04,05,11,6.10
2015,12,04,05,12,6.10
2015,12,04,05,13,6.10
2015,12,04,05,14,6.10
2015,12,04,05,15,6.10
2015,12,04,05,16,6.10
2015,12,04,05,17,6.10
2015,12,04,05,18,6.10
2015,12,04,05,19,6.10
2015,12,04,05,20,6.10
2015,12,04,05,21,6.10
2015,12,04,05,22,6.10
2015,12,04,05,23,6.20
2015,12,04,05,24,6.20
2015,12,04,05,25,6.20
2015,12,04,05,26,6.20
2015,12,04,05,27,6.20
2015,12,04,05,28,6.20
2015,12,04,05,29,6.30
2015,12,04,05,30,6.30
2015,12,04,05,31,6.30
2015,12,04,05,32,6.30
2015,12,04,05,33,6.30
2015,12,04,05,34,6.30
2015,12,04,05,35,6.30
2015,12,04,05,36,6.30
2015,12,04,05,37,6.30
2015,12,04,05,38,6.30
2015,12,04,05,39,6.30
2015,12,04,05,40,6.30
2015,12,04,05,41,6.30
2015,12,04,05,42,6.30
2015,12,04,05,43,6.30
2015,12,04,05,44,6.30
2015,12,04,05,45,6.30
2015,12,04,05,46,6.30
2015,12,04,05,47,6.30
2015,12,04,05,48,6.30
2015,12,04,05,49,6.20
2015,12,04,05,50,6.20
2015,12,04,05,51,6.20
2015,12,04,05,52,6.10
2015,12,04,05,53,6.10
2015,12,04,05,54,6.10
2015,12,04,05,55,6.10
2015,12,04,05,56,6.10
2015,12,04,05,57,6.00
2015,12,04,05,58,6.00
2015,12,04,05,59,6.00
2015,12,04,06,00,6.00
2015,12,04,06,01,5.90
2015,12,04,06,02,5.90
2015,12,04,06,03,5.90
2015,12,04,06,04,5.90
2015,12,04,06,05,5.90
2015,12,04,06,06,5.80
2015,12,04,06,07,5.80
2015,12,04,06,08,5.90
2015,12,04,06,09,5.90
2015,12,04,06,10,5.90
2015,12,04,06,11,5.90
2015,12,04,06,12,5.90
2015,12,04,06,13,5.90
2015,12,04,06,14,5.90
2015,12,04,06,15,5.90
2015,12,04,06,16,5.90
2015,12,04,06,17,5.90
2015,12,04,06,18,5.80
2015,12,04,06,19,5.80
2015,12,04,06,20,5.80
2015,12,04,06,21,5.80
2015,12,04,06,22,5.80
2015,12,04,06,23,5.80
2015,12,04,06,24,5.80
2015,12,04,06,25,5.80
2015,12,04,06,26,5.80
2015,12,04,06,27,5.80
2015,12,04,06,28,5.80
2015,12,04,06,29,5.80
2015,12,04,06,30,5.80
2015,12,04,06,31,5.80
2015,12,04,06,32,5.80
2015,12,04,06,33,5.80
2015,12,04,06,34,5.80
2015,12,04,06,35,5.80
2015,12,04,06,36,5.90
2015,12,04,06,37,5.90
2015,12,04,06,38,5.90
2015,12,04,06,39,6.00
2015,12,04,06,40,6.00
2015,12,04,06,41,6.00
2015,12,04,06,42,6.00
2015,12,04,06,43,6.00
2015,12,04,06,44,6.00
2015,12,04,06,45,6.00
2015,12,04,06,46,6.00
2015,12,04,06,47,6.00
2015,12,04,06,48,6.00
2015,12,04,06,49,6.00
2015,12,04,06,50,6.00
2015,12,04,06,51,5.90
2015,12,04,06,52,5.90
2015,12,04,06,53,6.00
2015,12,04,06,54,6.00
2015,12,04,06,55,6.00
2015,12,04,06,56,6.00
2015,12,04,06,57,5.90
2015,12,04,06,58,5.90
2015,12,04,06,59,5.80
2015,12,04,07,00,5.80
2015,12,04,07,01,5.80
2015,12,04,07,02,5.80
2015,12,04,07,03,5.70
2015,12,04,07,04,5.70
2015,12,04,07,05,5.60
2015,12,04,07,06,5.60
2015,12,04,07,07,5.50
2015,12,04,07,08,5.50
2015,12,04,07,09,5.50
2015,12,04,07,10,5.50
2015,12,04,07,11,5.50
2015,12,04,07,12,5.50
2015,12,04,07,13,5.50
2015,12,04,07,14,5.50
2015,12,04,07,15,5.40
2015,12,04,07,16,5.40
2015,12,04,07,17,5.50
2015,12,04,07,18,5.50
2015,12,04,07,19,5.50
2015,12,04,07,20,5.60
2015,12,04,07,21,5.60
2015,12,04,07,22,5.50
2015,12,04,07,23,5.50
2015,12,04,07,24,5.40
2015,12,04,07,25,5.40
2015,12,04,07,26,5.40
2015,12,04,07,27,5.50
2015,12,04,07,28,5.50
2015,12,04,07,29,5.60
2015,12,04,07,30,5.60
2015,12,04,07,31,5.70
2015,12,04,07,32,5.70
2015,12,04,07,33,5.70
2015,12,04,07,34,5.70
2015,12,04,07,35,5.70
2015,12,04,07,36,5.70
2015,12,04,07,37,5.60
2015,12,04,07,38,5.60
2015,12,04,07,39,5.60
2015,12,04,07,40,5.50
2015,12,04,07,41,5.50
2015,12,04,07,42,5.50
2015,12,04,07,43,5.60
2015,12,04,07,44,5.60
2015,12,04,07,45,5.70
2015,12,04,07,46,5.70
2015,12,04,07,47,5.60
2015,12,04,07,48,5.60
2015,12,04,07,49,5.50
2015,12,04,07,50,5.50
2015,12,04,07,51,5.40
2015,12,04,07,52,5.40
2015,12,04,07,53,5.40
2015,12,04,07,54,5.40
2015,12,04,07,55,5.50
2015,12,04,07,56,5.50
2015,12,04,07,57,5.60
2015,12,04,07,58,5.60
2015,12,04,07,59,5.60
2015,12,04,08,00,5.60
2015,12,04,08,01,5.60
2015,12,04,08,02,5.60
2015,12,04,08,03,5.60
2015,12,04,08,04,5.60
2015,12,04,08,05,5.50
2015,12,04,08,06,5.60
2015,12,04,08,07,5.60
2015,12,04,08,08,5.60
2015,12,04,08,09,5.60
2015,12,04,08,10,5.60
2015,12,04,08,11,5.60
2015,12,04,08,12,5.60
2015,12,04,08,13,5.60
2015,12,04,08,14,5.60
2015,12,04,08,15,5.60
2015,12,04,08,16,5.60
2015,12,04,08,17,5.60
2015,12,04,08,18,5.60
2015,12,04,08,19,5.60
2015,12,04,08,20,5.60
2015,12,04,08,21,5.60
2015,12,04,08,22,5.60
2015,12,04,08,23,5.60
2015,12,04,08,24,5.60
2015,12,04,08,25,5.60
2015,12,04,08,26,5.60
2015,12,04,08,27,5.60
2015,12,04,08,28,5.60
2015,12,04,08,29,5.60
2015,12,04,08,30,5.60
2015,12,04,08,31,5.70
2015,12,04,08,32,5.70
2015,12,04,08,33,5.70
2015,12,04,08,34,5.70
2015,12,04,08,35,5.70
2015,12,04,08,36,5.70
2015,12,04,08,37,5.70
2015,12,04,08,38,5.70
2015,12,04,08,39,5.70
2015,12,04,08,40,5.70
2015,12,04,08,41,5.70
2015,12,04,08,42,5.70
2015,12,04,08,43,5.70
2015,12,04,08,44,5.70
2015,12,04,08,45,5.70
2015,12,04,08,46,5.70
2015,12,04,08,47,5.70
2015,12,04,08,48,5.70
2015,12,04,08,49,5.70
2015,12,04,08,50,5.70
2015,12,04,08,51,5.70
2015,12,04,08,52,5.70
2015,12,04,08,53,5.70
2015,12,04,08,54,5.60
2015,12,04,08,55,5.60
2015,12,04,08,56,5.60
2015,12,04,08,57,5.60
2015,12,04,08,58,5.50
2015,12,04,08,59,5.50
2015,12,04,09,00,5.50
2015,12,04,09,01,5.50
2015,12,04,09,02,5.50
2015,12,04,09,03,5.50
2015,12,04,09,04,5.50
2015,12,04,09,05,5.40
2015,12,04,09,06,5.40
2015,12,04,09,07,5.40
2015,12,04,09,08,5.40
2015,12,04,09,09,5.50
2015,12,04,09,10,5.50
2015,12,04,09,11,5.50
2015,12,04,09,12,5.50
2015,12,04,09,13,5.50
2015,12,04,09,14,5.50
2015,12,04,09,15,5.50
2015,12,04,09,16,5.50
2015,12,04,09,17,5.60
2015,12,04,09,18,5.70
2015,12,04,09,19,5.70
2015,12,04,09,20,5.70
2015,12,04,09,21,5.70
2015,12,04,09,22,5.70
2015,12,04,09,23,5.70
2015,12,04,09,24,5.70
2015,12,04,09,25,5.80
2015,12,04,09,26,5.90
2015,12,04,09,27,5.90
2015,12,04,09,28,5.90
2015,12,04,09,29,5.90
2015,12,04,09,30,5.80
2015,12,04,09,31,5.80
2015,12,04,09,32,5.80
2015,12,04,09,33,5.70
2015,12,04,09,34,5.70
2015,12,04,09,35,5.70
2015,12,04,09,36,5.70
2015,12,04,09,37,5.70
2015,12,04,09,38,5.70
2015,12,04,09,39,5.70
2015,12,04,09,40,5.70
2015,12,04,09,41,5.70
2015,12,04,09,42,5.70
2015,12,04,09,43,5.80
2015,12,04,09,44,5.80
2015,12,04,09,45,5.80
2015,12,04,09,46,5.80
2015,12,04,09,47,5.80
2015,12,04,09,48,5.80
2015,12,04,09,49,5.80
2015,12,04,09,50,5.80
2015,12,04,09,51,5.90
2015,12,04,09,52,5.90
2015,12,04,09,53,5.90
2015,12,04,09,54,5.90
2015,12,04,09,55,5.90
2015,12,04,09,56,5.90
2015,12,04,09,57,6.00
2015,12,04,09,58,6.00
2015,12,04,09,59,6.10
2015,12,04,10,00,6.10
2015,12,04,10,01,6.10
2015,12,04,10,02,6.20
2015,12,04,10,03,6.20
2015,12,04,10,04,6.20
2015,12,04,10,05,6.30
2015,12,04,10,06,6.30
2015,12,04,10,07,6.40
2015,12,04,10,08,6.40
2015,12,04,10,09,6.50
2015,12,04,10,10,6.50
2015,12,04,10,11,6.60
2015,12,04,10,12,6.60
2015,12,04,10,13,6.70
2015,12,04,10,14,6.80
2015,12,04,10,15,6.80
2015,12,04,10,16,6.90
2015,12,04,10,17,7.00
2015,12,04,10,18,7.10
2015,12,04,10,19,7.20
2015,12,04,10,20,7.30
2015,12,04,10,21,7.40
2015,12,04,10,22,7.50
2015,12,04,10,23,7.60
2015,12,04,10,24,7.60
2015,12,04,10,25,7.70
2015,12,04,10,26,7.80
2015,12,04,10,27,7.90
2015,12,04,10,28,8.00
2015,12,04,10,29,8.00
2015,12,04,10,30,8.10
2015,12,04,10,31,8.20
2015,12,04,10,32,8.30
2015,12,04,10,33,8.40
2015,12,04,10,34,8.40
2015,12,04,10,35,8.50
2015,12,04,10,36,8.50
2015,12,04,10,37,8.50
2015,12,04,10,38,8.60
2015,12,04,10,39,8.60
2015,12,04,10,40,8.60
2015,12,04,10,41,8.60
2015,12,04,10,42,8.60
2015,12,04,10,43,8.70
2015,12,04,10,44,8.70
2015,12,04,10,45,8.70
2015,12,04,10,46,8.70
2015,12,04,10,47,8.70
2015,12,04,10,48,8.70
2015,12,04,10,49,8.70
2015,12,04,10,50,8.80
2015,12,04,10,51,8.80
2015,12,04,10,52,8.80
2015,12,04,10,53,8.80
2015,12,04,10,54,8.80
2015,12,04,10,55,8.80
2015,12,04,10,56,8.80
2015,12,04,10,57,8.80
2015,12,04,10,58,8.80
2015,12,04,10,59,8.80
2015,12,04,11,00,8.80
2015,12,04,11,01,8.90
2015,12,04,11,02,8.90
2015,12,04,11,03,8.90
2015,12,04,11,04,8.90
2015,12,04,11,05,9.00
2015,12,04,11,06,9.00
2015,12,04,11,07,9.10
2015,12,04,11,08,9.10
2015,12,04,11,09,9.10
2015,12,04,11,10,9.20
2015,12,04,11,11,9.20
2015,12,04,11,12,9.30
2015,12,04,11,13,9.30
2015,12,04,11,14,9.30
2015,12,04,11,15,9.30
2015,12,04,11,16,9.30
2015,12,04,11,17,9.30
2015,12,04,11,18,9.40
2015,12,04,11,19,9.40
2015,12,04,11,20,9.30
2015,12,04,11,21,9.30
2015,12,04,11,22,9.30
2015,12,04,11,23,9.30
2015,12,04,11,24,9.30
2015,12,04,11,25,9.30
2015,12,04,11,26,9.40
2015,12,04,11,27,9.40
2015,12,04,11,28,9.40
2015,12,04,11,29,9.40
2015,12,04,11,30,9.40
2015,12,04,11,31,9.40
2015,12,04,11,32,9.30
2015,12,04,11,33,9.30
2015,12,04,11,34,9.30
2015,12,04,11,35,9.30
2015,12,04,11,36,9.30
2015,12,04,11,37,9.30
2015,12,04,11,38,9.30
2015,12,04,11,39,9.30
2015,12,04,11,40,9.30
2015,12,04,11,41,9.30
2015,12,04,11,42,9.30
2015,12,04,11,43,9.30
2015,12,04,11,44,9.30
2015,12,04,11,45,9.40
2015,12,04,11,46,9.40
2015,12,04,11,47,9.40
2015,12,04,11,48,9.40
2015,12,04,11,49,9.50
2015,12,04,11,50,9.60
2015,12,04,11,51,9.60
2015,12,04,11,52,9.70
2015,12,04,11,53,9.70
2015,12,04,11,54,9.80
2015,12,04,11,55,9.80
2015,12,04,11,56,9.80
2015,12,04,11,57,9.90
2015,12,04,11,58,9.90
2015,12,04,11,59,9.90
2015,12,04,12,00,9.90
2015,12,04,12,01,10.00
2015,12,04,12,02,10.00
2015,12,04,12,03,10.00
2015,12,04,12,04,10.10
2015,12,04,12,05,10.10
2015,12,04,12,06,10.20
2015,12,04,12,07,10.20
2015,12,04,12,08,10.30
2015,12,04,12,09,10.30
2015,12,04,12,10,10.40
2015,12,04,12,11,10.40
2015,12,04,12,12,10.40
2015,12,04,12,13,10.40
2015,12,04,12,14,10.40
2015,12,04,12,15,10.40
2015,12,04,12,16,10.40
2015,12,04,12,17,10.40
2015,12,04,12,18,10.40
2015,12,04,12,19,10.40
2015,12,04,12,20,10.40
2015,12,04,12,21,10.40
2015,12,04,12,22,10.40
2015,12,04,12,23,10.40
2015,12,04,12,24,10.40
2015,12,04,12,25,10.40
2015,12,04,12,26,10.30
2015,12,04,12,27,10.30
2015,12,04,12,28,10.20
2015,12,04,12,29,10.20
2015,12,04,12,30,10.10
2015,12,04,12,31,10.10
2015,12,04,12,32,10.00
2015,12,04,12,33,9.90
2015,12,04,12,34,9.80
2015,12,04,12,35,9.70
2015,12,04,12,36,9.60
2015,12,04,12,37,9.60
2015,12,04,12,38,9.50
2015,12,04,12,39,9.40
2015,12,04,12,40,9.40
2015,12,04,12,41,9.30
2015,12,04,12,42,9.30
2015,12,04,12,43,9.20
2015,12,04,12,44,9.20
2015,12,04,12,45,9.20
2015,12,04,12,46,9.10
2015,12,04,12,47,9.10
2015,12,04,12,48,9.10
2015,12,04,12,49,9.10
2015,12,04,12,50,9.10
2015,12,04,12,51,9.00
2015,12,04,12,52,9.00
2015,12,04,12,53,9.00
2015,12,04,12,54,9.00
2015,12,04,12,55,8.90
2015,12,04,12,56,8.90
2015,12,04,12,57,8.90
2015,12,04,12,58,8.90
2015,12,04,12,59,8.90
2015,12,04,13,00,8.90
2015,12,04,13,01,8.80
2015,12,04,13,02,8.80
2015,12,04,13,03,8.80
2015,12,04,13,04,8.80
2015,12,04,13,05,8.80
2015,12,04,13,06,8.80
2015,12,04,13,07,8.80
2015,12,04,13,08,8.80
2015,12,04,13,09,8.80
2015,12,04,13,10,8.80
2015,12,04,13,11,8.80
2015,12,04,13,12,8.80
2015,12,04,13,13,8.80
2015,12,04,13,14,8.80
2015,12,04,13,15,8.80
2015,12,04,13,16,8.80
2015,12,04,13,17,8.80
2015,12,04,13,18,8.80
2015,12,04,13,19,8.80
2015,12,04,13,20,8.80
2015,12,04,13,21,8.70
2015,12,04,13,22,8.80
2015,12,04,13,23,8.80
2015,12,04,13,24,8.80
2015,12,04,13,25,8.80
2015,12,04,13,26,8.90
2015,12,04,13,27,8.90
2015,12,04,13,28,8.90
2015,12,04,13,29,8.90
2015,12,04,13,30,8.90
2015,12,04,13,31,8.90
2015,12,04,13,32,8.90
2015,12,04,13,33,8.90
2015,12,04,13,34,8.80
2015,12,04,13,35,8.80
2015,12,04,13,36,8.80
2015,12,04,13,37,8.70
2015,12,04,13,38,8.70
2015,12,04,13,39,8.70
2015,12,04,13,40,8.70
2015,12,04,13,41,8.60
2015,12,04,13,42,8.60
2015,12,04,13,43,8.60
2015,12,04,13,44,8.50
2015,12,04,13,45,8.50
2015,12,04,13,46,8.50
2015,12,04,13,47,8.40
2015,12,04,13,48,8.40
2015,12,04,13,49,8.40
2015,12,04,13,50,8.40
2015,12,04,13,51,8.40
2015,12,04,13,52,8.30
2015,12,04,13,53,8.30
2015,12,04,13,54,8.40
2015,12,04,13,55,8.40
2015,12,04,13,56,8.40
2015,12,04,13,57,8.40
2015,12,04,13,58,8.40
2015,12,04,13,59,8.40
2015,12,04,14,00,8.40
2015,12,04,14,01,8.40
2015,12,04,14,02,8.50
2015,12,04,14,03,8.50
2015,12,04,14,04,8.50
2015,12,04,14,05,8.60
2015,12,04,14,06,8.60
2015,12,04,14,07,8.60
2015,12,04,14,08,8.60
2015,12,04,14,09,8.60
2015,12,04,14,10,8.60
2015,12,04,14,11,8.60
2015,12,04,14,12,8.60
2015,12,04,14,13,8.60
2015,12,04,14,14,8.50
2015,12,04,14,15,8.50
2015,12,04,14,16,8.50
2015,12,04,14,17,8.50
2015,12,04,14,18,8.50
2015,12,04,14,19,8.50
2015,12,04,14,20,8.50
2015,12,04,14,21,8.50
2015,12,04,14,22,8.50
2015,12,04,14,23,8.50
2015,12,04,14,24,8.50
2015,12,04,14,25,8.50
2015,12,04,14,26,8.50
2015,12,04,14,27,8.50
2015,12,04,14,28,8.50
2015,12,04,14,29,8.50
2015,12,04,14,30,8.50
2015,12,04,14,31,8.50
2015,12,04,14,32,8.50
2015,12,04,14,33,8.60
2015,12,04,14,34,8.60
2015,12,04,14,35,8.60
2015,12,04,14,36,8.60
2015,12,04,14,37,8.60
2015,12,04,14,38,8.60
2015,12,04,14,39,8.60
2015,12,04,14,40,8.60
2015,12,04,14,41,8.60
2015,12,04,14,42,8.60
2015,12,04,14,43,8.60
2015,12,04,14,44,8.60
2015,12,04,14,45,8.70
2015,12,04,14,46,8.60
2015,12,04,14,47,8.70
2015,12,04,14,48,8.70
2015,12,04,14,49,8.70
2015,12,04,14,50,8.70
2015,12,04,14,51,8.70
2015,12,04,14,52,8.70
2015,12,04,14,53,8.70
2015,12,04,14,54,8.70
2015,12,04,14,55,8.70
2015,12,04,14,56,8.70
2015,12,04,14,57,8.70
2015,12,04,14,58,8.70
2015,12,04,14,59,8.70
2015,12,04,15,00,8.60
2015,12,04,15,01,8.60
2015,12,04,15,02,8.60
2015,12,04,15,03,8.60
2015,12,04,15,04,8.60
2015,12,04,15,05,8.60
2015,12,04,15,06,8.60
2015,12,04,15,07,8.60
2015,12,04,15,08,8.60
2015,12,04,15,09,8.60
2015,12,04,15,10,8.60
2015,12,04,15,11,8.60
2015,12,04,15,12,8.60
2015,12,04,15,13,8.60
2015,12,04,15,14,8.70
2015,12,04,15,15,8.70
2015,12,04,15,16,8.70
2015,12,04,15,17,8.70
2015,12,04,15,18,8.60
2015,12,04,15,19,8.60
2015,12,04,15,20,8.60
2015,12,04,15,21,8.60
2015,12,04,15,22,8.60
2015,12,04,15,23,8.60
2015,12,04,15,24,8.50
2015,12,04,15,25,8.50
2015,12,04,15,26,8.50
2015,12,04,15,27,8.40
2015,12,04,15,28,8.40
2015,12,04,15,29,8.40
2015,12,04,15,30,8.40
2015,12,04,15,31,8.40
2015,12,04,15,32,8.40
2015,12,04,15,33,8.30
2015,12,04,15,34,8.30
2015,12,04,15,35,8.30
2015,12,04,15,36,8.30
2015,12,04,15,37,8.30
2015,12,04,15,38,8.30
2015,12,04,15,39,8.20
2015,12,04,15,40,8.20
2015,12,04,15,41,8.20
2015,12,04,15,42,8.20
2015,12,04,15,43,8.20
2015,12,04,15,44,8.20
2015,12,04,15,45,8.20
2015,12,04,15,46,8.20
2015,12,04,15,47,8.20
2015,12,04,15,48,8.20
2015,12,04,15,49,8.20
2015,12,04,15,50,8.20
2015,12,04,15,51,8.20
2015,12,04,15,52,8.20
2015,12,04,15,53,8.20
2015,12,04,15,54,8.20
2015,12,04,15,55,8.20
2015,12,04,15,56,8.20
2015,12,04,15,57,8.10
2015,12,04,15,58,8.10
2015,12,04,15,59,8.10
2015,12,04,16,00,8.10
2015,12,04,16,01,8.10
2015,12,04,16,02,8.10
2015,12,04,16,03,8.00
2015,12,04,16,04,8.00
2015,12,04,16,05,8.00
2015,12,04,16,06,8.00
2015,12,04,16,07,8.00
2015,12,04,16,08,7.90
2015,12,04,16,09,7.90
2015,12,04,16,10,7.90
2015,12,04,16,11,7.90
2015,12,04,16,12,7.80
2015,12,04,16,13,7.80
2015,12,04,16,14,7.80
2015,12,04,16,15,7.80
2015,12,04,16,16,7.80
2015,12,04,16,17,7.80
2015,12,04,16,18,7.80
2015,12,04,16,19,7.80
2015,12,04,16,20,7.80
2015,12,04,16,21,7.80
2015,12,04,16,22,7.80
2015,12,04,16,23,7.70
2015,12,04,16,24,7.70
2015,12,04,16,25,7.70
2015,12,04,16,26,7.70
2015,12,04,16,27,7.70
2015,12,04,16,28,7.60
2015,12,04,16,29,7.60
2015,12,04,16,30,7.60
2015,12,04,16,31,7.50
2015,12,04,16,32,7.50
2015,12,04,16,33,7.50
2015,12,04,16,34,7.50
2015,12,04,16,35,7.40
2015,12,04,16,36,7.40
2015,12,04,16,37,7.40
2015,12,04,16,38,7.40
2015,12,04,16,39,7.40
2015,12,04,16,40,7.40
2015,12,04,16,41,7.40
2015,12,04,16,42,7.40
2015,12,04,16,43,7.40
2015,12,04,16,44,7.40
2015,12,04,16,45,7.40
2015,12,04,16,46,7.40
2015,12,04,16,47,7.40
2015,12,04,16,48,7.30
2015,12,04,16,49,7.30
2015,12,04,16,50,7.30
2015,12,04,16,51,7.30
2015,12,04,16,52,7.30
2015,12,04,16,53,7.30
2015,12,04,16,54,7.30
2015,12,04,16,55,7.30
2015,12,04,16,56,7.30
2015,12,04,16,57,7.20
2015,12,04,16,58,7.20
2015,12,04,16,59,7.20
2015,12,04,17,00,7.20
2015,12,04,17,01,7.20
2015,12,04,17,02,7.20
2015,12,04,17,03,7.20
2015,12,04,17,04,7.20
2015,12,04,17,05,7.20
2015,12,04,17,06,7.20
2015,12,04,17,07,7.10
2015,12,04,17,08,7.10
2015,12,04,17,09,7.10
2015,12,04,17,10,7.10
2015,12,04,17,11,7.10
2015,12,04,17,12,7.10
2015,12,04,17,13,7.10
2015,12,04,17,14,7.00
2015,12,04,17,15,7.00
2015,12,04,17,16,7.00
2015,12,04,17,17,7.00
2015,12,04,17,18,7.00
2015,12,04,17,19,7.00
2015,12,04,17,20,6.90
2015,12,04,17,21,6.90
2015,12,04,17,22,6.90
2015,12,04,17,23,6.90
2015,12,04,17,24,6.90
2015,12,04,17,25,6.90
2015,12,04,17,26,6.90
2015,12,04,17,27,6.90
2015,12,04,17,28,6.80
2015,12,04,17,29,6.80
2015,12,04,17,30,6.80
2015,12,04,17,31,6.80
2015,12,04,17,32,6.80
2015,12,04,17,33,6.80
2015,12,04,17,34,6.80
2015,12,04,17,35,6.80
2015,12,04,17,36,6.80
2015,12,04,17,37,6.80
2015,12,04,17,38,6.70
2015,12,04,17,39,6.70
2015,12,04,17,40,6.70
2015,12,04,17,41,6.70
2015,12,04,17,42,6.70
2015,12,04,17,43,6.70
2015,12,04,17,44,6.70
2015,12,04,17,45,6.70
2015,12,04,17,46,6.70
2015,12,04,17,47,6.70
2015,12,04,17,48,6.70
2015,12,04,17,49,6.70
2015,12,04,17,50,6.70
2015,12,04,17,51,6.70
2015,12,04,17,52,6.70
2015,12,04,17,53,6.70
2015,12,04,17,54,6.70
2015,12,04,17,55,6.70
2015,12,04,17,56,6.60
2015,12,04,17,57,6.60
2015,12,04,17,58,6.60
2015,12,04,17,59,6.60
2015,12,04,18,00,6.60
2015,12,04,18,01,6.60
2015,12,04,18,02,6.50
2015,12,04,18,03,6.50
2015,12,04,18,04,6.50
2015,12,04,18,05,6.50
2015,12,04,18,06,6.40
2015,12,04,18,07,6.40
2015,12,04,18,08,6.40
2015,12,04,18,09,6.40
2015,12,04,18,10,6.40
2015,12,04,18,11,6.40
2015,12,04,18,12,6.40
2015,12,04,18,13,6.40
2015,12,04,18,14,6.40
2015,12,04,18,15,6.40
2015,12,04,18,16,6.30
2015,12,04,18,17,6.30
2015,12,04,18,18,6.30
2015,12,04,18,19,6.30
2015,12,04,18,20,6.30
2015,12,04,18,21,6.30
2015,12,04,18,22,6.30
2015,12,04,18,23,6.30
2015,12,04,18,24,6.30
2015,12,04,18,25,6.30
2015,12,04,18,26,6.30
2015,12,04,18,27,6.30
2015,12,04,18,28,6.30
2015,12,04,18,29,6.30
2015,12,04,18,30,6.30
2015,12,04,18,31,6.30
2015,12,04,18,32,6.30
2015,12,04,18,33,6.30
2015,12,04,18,34,6.30
2015,12,04,18,35,6.30
2015,12,04,18,36,6.30
2015,12,04,18,37,6.30
2015,12,04,18,38,6.30
2015,12,04,18,39,6.30
2015,12,04,18,40,6.30
2015,12,04,18,41,6.30
2015,12,04,18,42,6.30
2015,12,04,18,43,6.30
2015,12,04,18,44,6.30
2015,12,04,18,45,6.30
2015,12,04,18,46,6.30
2015,12,04,18,47,6.30
2015,12,04,18,48,6.30
2015,12,04,18,49,6.30
2015,12,04,18,50,6.30
2015,12,04,18,51,6.30
2015,12,04,18,52,6.30
2015,12,04,18,53,6.30
2015,12,04,18,54,6.30
2015,12,04,18,55,6.30
2015,12,04,18,56,6.30
2015,12,04,18,57,6.30
2015,12,04,18,58,6.30
2015,12,04,18,59,6.30
2015,12,04,19,00,6.30
2015,12,04,19,01,6.30
2015,12,04,19,02,6.30
2015,12,04,19,03,6.30
2015,12,04,19,04,6.30
2015,12,04,19,05,6.30
2015,12,04,19,06,6.30
2015,12,04,19,07,6.30
2015,12,04,19,08,6.30
2015,12,04,19,09,6.30
2015,12,04,19,10,6.30
2015,12,04,19,11,6.30